| time (UTC) | temp F | wind direction | speed knots | gust knots | rain 1hr in | rain 24hr in | rain mn in | humidity % | barometer mb |
| 20260510225518 | 55 | 355 | 1.7 | 4.3 | 0.00 | 0.04 | 0.04 | 87 | 1025.5 |
| 20260510224405 | 55 | 24 | 1.7 | 4.3 | 0.00 | 0.04 | 0.04 | 86 | 1025.4 |
| 20260510223905 | 55 | 355 | 0.9 | 4.3 | 0.00 | 0.04 | 0.04 | 87 | 1025.4 |
| 20260510223406 | 55 | 26 | 1.7 | 7.0 | 0.00 | 0.04 | 0.04 | 87 | 1025.4 |
| 20260510222903 | 55 | 36 | 1.7 | 7.0 | 0.00 | 0.04 | 0.04 | 87 | 1025.3 |
| 20260510222402 | 55 | 83 | 0.9 | 4.3 | 0.00 | 0.04 | 0.04 | 88 | 1025.3 |
| 20260510221904 | 55 | 95 | 1.7 | 4.3 | 0.00 | 0.04 | 0.04 | 88 | 1025.2 |
| 20260510221401 | 55 | 47 | 1.7 | 3.5 | 0.00 | 0.04 | 0.04 | 88 | 1025.4 |
| 20260510220901 | 55 | 5 | 0.9 | 3.5 | 0.00 | 0.04 | 0.04 | 88 | 1025.6 |
| 20260510220401 | 55 | 355 | 0.9 | 2.6 | 0.00 | 0.04 | 0.04 | 88 | 1025.9 |
| 20260510215903 | 55 | 351 | 1.7 | 2.6 | 0.00 | 0.04 | 0.04 | 88 | 1025.9 |
| 20260510215857 | 55 | 61 | 1.7 | 2.6 | 0.00 | 0.04 | 0.04 | 88 | 1025.8 |
| 20260510214856 | 54 | 44 | 1.7 | 2.6 | 0.00 | 0.04 | 0.04 | 88 | 1026.1 |
| 20260510214403 | 54 | 59 | 1.7 | 4.3 | 0.00 | 0.04 | 0.04 | 89 | 1026.1 |
| 20260510214356 | 54 | 50 | 1.7 | 6.1 | 0.00 | 0.04 | 0.04 | 89 | 1026.2 |
| 20260510213858 | 54 | 336 | 1.7 | 6.1 | 0.00 | 0.04 | 0.04 | 88 | 1026.1 |
| 20260510212856 | 54 | 49 | 1.7 | 4.3 | 0.00 | 0.04 | 0.04 | 89 | 1025.9 |
| 20260510212358 | 54 | 38 | 0.9 | 4.3 | 0.00 | 0.04 | 0.04 | 89 | 1026.2 |
| 20260510211857 | 53 | 35 | 0.9 | 4.3 | 0.00 | 0.04 | 0.04 | 89 | 1026.4 |
| 20260510211357 | 53 | 66 | 1.7 | 4.3 | 0.00 | 0.04 | 0.04 | 89 | 1026.5 |
| 20260510210858 | 53 | 79 | 1.7 | 3.5 | 0.00 | 0.04 | 0.04 | 89 | 1026.6 |
| 20260510210357 | 53 | 21 | 1.7 | 3.5 | 0.00 | 0.04 | 0.04 | 89 | 1026.6 |
| 20260510205857 | 53 | 53 | 1.7 | 3.5 | 0.00 | 0.04 | 0.04 | 89 | 1026.5 |
| 20260510205356 | 53 | 71 | 1.7 | 7.0 | 0.00 | 0.04 | 0.04 | 89 | 1026.2 |
| 20260510204856 | 53 | 80 | 1.7 | 7.0 | 0.00 | 0.04 | 0.04 | 89 | 1026.1 |
| 20260510204356 | 53 | 65 | 1.7 | 5.2 | 0.00 | 0.04 | 0.04 | 89 | 1026.1 |
| 20260510203856 | 53 | 73 | 2.6 | 6.1 | 0.00 | 0.04 | 0.04 | 89 | 1026.2 |
| 20260510203358 | 53 | 69 | 2.6 | 6.1 | 0.00 | 0.04 | 0.04 | 89 | 1026.1 |
| 20260510202858 | 53 | 63 | 2.6 | 5.2 | 0.00 | 0.04 | 0.04 | 89 | 1026.1 |
| 20260510202401 | 53 | 63 | 1.7 | 3.5 | 0.00 | 0.04 | 0.04 | 89 | 1026.4 |
| 20260510202357 | 53 | 62 | 1.7 | 4.3 | 0.00 | 0.04 | 0.04 | 89 | 1026.3 |
| 20260510201356 | 53 | 80 | 1.7 | 5.2 | 0.00 | 0.04 | 0.04 | 89 | 1026.5 |
| 20260510200901 | 53 | 15 | 1.7 | 5.2 | 0.01 | 0.04 | 0.04 | 89 | 1026.3 |
| 20260510200856 | 53 | 80 | 1.7 | 5.2 | 0.00 | 0.04 | 0.04 | 89 | 1026.4 |
| 20260510195901 | 53 | 30 | 0.9 | 3.5 | 0.01 | 0.04 | 0.04 | 89 | 1026.6 |
| 20260510195856 | 53 | 44 | 1.7 | 3.5 | 0.01 | 0.04 | 0.04 | 89 | 1026.5 |
| 20260510194855 | 53 | 17 | 0.9 | 3.5 | 0.01 | 0.04 | 0.04 | 89 | 1026.8 |
| 20260510194353 | 53 | 63 | 1.7 | 3.5 | 0.01 | 0.04 | 0.04 | 89 | 1026.7 |
| 20260510193857 | 53 | 68 | 1.7 | 6.1 | 0.02 | 0.04 | 0.04 | 89 | 1025.9 |
| 20260510193853 | 53 | 47 | 1.7 | 3.5 | 0.01 | 0.04 | 0.04 | 89 | 1026.1 |
| 20260510193502 | 54 | 36 | 1.7 | 4.3 | 0.04 | 0.04 | 0.04 | 89 | 1026.5 |
| 20260510192851 | 53 | 57 | 1.7 | 6.1 | 0.03 | 0.04 | 0.04 | 89 | 1025.9 |
| 20260510192350 | 54 | 69 | 0.9 | 4.3 | 0.03 | 0.04 | 0.04 | 89 | 1026.3 |
| 20260510191350 | 53 | 42 | 1.7 | 4.3 | 0.04 | 0.04 | 0.04 | 89 | 1026.6 |
| 20260510190846 | 53 | 28 | 1.7 | 5.2 | 0.04 | 0.04 | 0.04 | 89 | 1026.6 |
| 20260510190344 | 53 | 64 | 1.7 | 5.2 | 0.03 | 0.03 | 0.03 | 88 | 1026.4 |
| 20260510185845 | 53 | 61 | 2.6 | 7.0 | 0.03 | 0.03 | 0.03 | 88 | 1026.3 |
| 20260510185343 | 53 | 74 | 2.6 | 8.7 | 0.03 | 0.03 | 0.03 | 88 | 1026.2 |
| 20260510184844 | 53 | 30 | 1.7 | 8.7 | 0.03 | 0.03 | 0.03 | 87 | 1026.3 |
| 20260510184839 | 53 | 67 | 1.7 | 7.0 | 0.03 | 0.03 | 0.03 | 87 | 1026.6 |
| 20260510183838 | 53 | 45 | 1.7 | 4.3 | 0.03 | 0.03 | 0.03 | 86 | 1026.6 |
| 20260510183338 | 54 | 37 | 1.7 | 7.0 | 0.02 | 0.02 | 0.02 | 86 | 1026.7 |
| 20260510182837 | 54 | 5 | 1.7 | 7.0 | 0.01 | 0.01 | 0.01 | 86 | 1026.7 |
| 20260510182342 | 55 | 26 | 1.7 | 3.5 | 0.00 | 0.00 | 0.00 | 85 | 1025.8 |
| 20260510182337 | 55 | 15 | 1.7 | 7.0 | 0.01 | 0.01 | 0.01 | 85 | 1026.4 |
| 20260510181336 | 55 | 0 | 1.7 | 3.5 | 0.00 | 0.00 | 0.00 | 85 | 1025.5 |
| 20260510180837 | 54 | 35 | 1.7 | 4.3 | 0.00 | 0.00 | 0.00 | 83 | 1025.6 |
| 20260510180336 | 55 | 0 | 1.7 | 5.2 | 0.00 | 0.00 | 0.00 | 82 | 1025.9 |
| 20260510175834 | 55 | 355 | 1.7 | 5.2 | 0.00 | 0.00 | 0.00 | 82 | 1025.9 |
| 20260510175341 | 55 | 97 | 1.7 | 4.3 | 0.00 | 0.00 | 0.00 | 81 | 1025.6 |
| 20260510175334 | 55 | 322 | 1.7 | 4.3 | 0.00 | 0.00 | 0.00 | 81 | 1025.9 |
| 20260510174834 | 55 | 34 | 1.7 | 3.5 | 0.00 | 0.00 | 0.00 | 81 | 1025.9 |
| 20260510174333 | 55 | 350 | 1.7 | 4.3 | 0.00 | 0.00 | 0.00 | 81 | 1025.8 |
| 20260510173332 | 55 | 46 | 1.7 | 4.3 | 0.00 | 0.00 | 0.00 | 81 | 1025.5 |
| 20260510172837 | 55 | 69 | 1.7 | 5.2 | 0.00 | 0.00 | 0.00 | 81 | 1025.3 |
| 20260510172832 | 55 | 91 | 1.7 | 5.2 | 0.00 | 0.00 | 0.00 | 81 | 1025.4 |
| 20260510171830 | 55 | 26 | 1.7 | 4.3 | 0.00 | 0.00 | 0.00 | 81 | 1025.2 |
| 20260510171330 | 55 | 50 | 1.7 | 4.3 | 0.00 | 0.00 | 0.00 | 81 | 1024.9 |
| 20260510170828 | 55 | 36 | 1.7 | 7.8 | 0.00 | 0.00 | 0.00 | 81 | 1024.7 |
| 20260510170328 | 55 | 37 | 2.6 | 8.7 | 0.00 | 0.00 | 0.00 | 81 | 1024.6 |
| 20260510165828 | 55 | 38 | 1.7 | 8.7 | 0.00 | 0.00 | 0.00 | 81 | 1024.4 |
| 20260510165329 | 55 | 25 | 1.7 | 5.2 | 0.00 | 0.00 | 0.00 | 81 | 1024.3 |
| 20260510164829 | 54 | 49 | 2.6 | 5.2 | 0.00 | 0.00 | 0.00 | 81 | 1024.1 |
| 20260510164327 | 54 | 17 | 2.6 | 6.1 | 0.00 | 0.00 | 0.00 | 81 | 1024.0 |
| 20260510163826 | 54 | 39 | 2.6 | 6.1 | 0.00 | 0.00 | 0.00 | 81 | 1023.9 |
| 20260510163326 | 54 | 344 | 2.6 | 7.0 | 0.00 | 0.00 | 0.00 | 81 | 1024.1 |
| 20260510162826 | 54 | 109 | 2.6 | 7.0 | 0.00 | 0.00 | 0.00 | 81 | 1024.1 |
| 20260510162326 | 54 | 24 | 2.6 | 6.1 | 0.00 | 0.00 | 0.00 | 81 | 1024.1 |
| 20260510161827 | 54 | 348 | 3.5 | 8.7 | 0.00 | 0.00 | 0.00 | 81 | 1023.9 |
| 20260510161326 | 54 | 40 | 3.5 | 8.7 | 0.00 | 0.00 | 0.00 | 81 | 1024.0 |
| 20260510160826 | 54 | 25 | 3.5 | 7.8 | 0.00 | 0.00 | 0.00 | 81 | 1023.8 |
| 20260510160327 | 54 | 5 | 3.5 | 7.0 | 0.00 | 0.00 | 0.00 | 80 | 1023.8 |
| 20260510155826 | 54 | 0 | 2.6 | 7.0 | 0.00 | 0.00 | 0.00 | 80 | 1023.9 |
| 20260510155325 | 55 | 44 | 2.6 | 7.0 | 0.00 | 0.00 | 0.00 | 79 | 1023.8 |
| 20260510154825 | 55 | 24 | 2.6 | 7.0 | 0.00 | 0.00 | 0.00 | 80 | 1023.8 |
| 20260510154330 | 56 | 32 | 2.6 | 8.7 | 0.00 | 0.00 | 0.00 | 80 | 1023.6 |
| 20260510154324 | 55 | 331 | 2.6 | 7.0 | 0.00 | 0.00 | 0.00 | 80 | 1023.7 |
| 20260510153824 | 56 | 0 | 2.6 | 8.7 | 0.00 | 0.00 | 0.00 | 80 | 1023.7 |
| 20260510152824 | 56 | 77 | 2.6 | 7.0 | 0.00 | 0.00 | 0.00 | 80 | 1023.5 |
| 20260510152324 | 56 | 32 | 2.6 | 7.0 | 0.00 | 0.00 | 0.00 | 80 | 1023.4 |
| 20260510151824 | 56 | 48 | 2.6 | 7.0 | 0.00 | 0.00 | 0.00 | 80 | 1023.3 |
| 20260510151329 | 57 | 42 | 2.6 | 7.8 | 0.00 | 0.00 | 0.00 | 81 | 1023.1 |
| 20260510151324 | 57 | 351 | 2.6 | 7.8 | 0.00 | 0.00 | 0.00 | 81 | 1023.3 |
| 20260510150327 | 57 | 16 | 1.7 | 6.1 | 0.00 | 0.00 | 0.00 | 82 | 1022.8 |
| 20260510150323 | 57 | 355 | 1.7 | 6.1 | 0.00 | 0.00 | 0.00 | 82 | 1022.9 |
| 20260510145324 | 58 | 348 | 1.7 | 6.1 | 0.00 | 0.00 | 0.00 | 82 | 1022.7 |
| 20260510144829 | 58 | 0 | 2.6 | 6.1 | 0.00 | 0.00 | 0.00 | 82 | 1022.2 |
| 20260510144825 | 58 | 146 | 2.6 | 6.1 | 0.00 | 0.00 | 0.00 | 82 | 1022.5 |
| 20260510143830 | 58 | 355 | 1.7 | 6.1 | 0.00 | 0.00 | 0.00 | 81 | 1021.9 |
| 20260510143823 | 58 | 0 | 2.6 | 9.6 | 0.00 | 0.00 | 0.00 | 82 | 1021.9 |
| 20260510143324 | 58 | 15 | 2.6 | 9.6 | 0.00 | 0.00 | 0.00 | 82 | 1021.8 |
| 20260510142936 | 58 | 86 | 1.7 | 5.2 | 0.00 | 0.00 | 0.00 | 81 | 1021.9 |
| 20260510142436 | 59 | 25 | 2.6 | 6.1 | 0.00 | 0.00 | 0.00 | 80 | 1021.9 |
| 20260510141824 | 59 | 9 | 2.6 | 6.1 | 0.00 | 0.00 | 0.00 | 80 | 1022.0 |
| 20260510140824 | 59 | 42 | 2.6 | 4.3 | 0.00 | 0.00 | 0.00 | 79 | 1021.8 |
| 20260510140328 | 59 | 40 | 2.6 | 7.8 | 0.00 | 0.00 | 0.00 | 78 | 1021.5 |
| 20260510140324 | 59 | 322 | 2.6 | 7.8 | 0.00 | 0.00 | 0.00 | 79 | 1021.7 |
| 20260510135324 | 59 | 5 | 2.6 | 7.8 | 0.00 | 0.00 | 0.00 | 79 | 1021.3 |
| 20260510134826 | 59 | 50 | 2.6 | 7.8 | 0.00 | 0.00 | 0.00 | 79 | 1021.2 |
| 20260510134324 | 60 | 230 | 2.6 | 5.2 | 0.00 | 0.00 | 0.00 | 78 | 1021.1 |
| 20260510133829 | 60 | 5 | 1.7 | 3.5 | 0.00 | 0.00 | 0.00 | 78 | 1021.1 |
| 20260510133825 | 60 | 19 | 1.7 | 4.3 | 0.00 | 0.00 | 0.00 | 78 | 1021.1 |
| 20260510133437 | 61 | 42 | 1.7 | 5.2 | 0.00 | 0.00 | 0.00 | 79 | 1020.8 |
| 20260510132324 | 61 | 326 | 1.7 | 5.2 | 0.00 | 0.00 | 0.00 | 79 | 1020.6 |
| 20260510131822 | 61 | 53 | 1.7 | 5.2 | 0.00 | 0.00 | 0.00 | 79 | 1020.5 |
| 20260510131327 | 62 | 355 | 1.7 | 4.3 | 0.00 | 0.00 | 0.00 | 78 | 1020.0 |
| 20260510131322 | 61 | 19 | 1.7 | 4.3 | 0.00 | 0.00 | 0.00 | 79 | 1020.2 |
| 20260510130822 | 61 | 46 | 1.7 | 4.3 | 0.00 | 0.00 | 0.00 | 78 | 1020.1 |
| 20260510125819 | 62 | 11 | 1.7 | 3.5 | 0.00 | 0.00 | 0.00 | 78 | 1020.0 |
| 20260510125319 | 62 | 339 | 1.7 | 3.5 | 0.00 | 0.00 | 0.00 | 78 | 1019.8 |
| 20260510124823 | 62 | 35 | 1.7 | 4.3 | 0.00 | 0.00 | 0.00 | 78 | 1019.6 |
| 20260510124819 | 62 | 9 | 1.7 | 4.3 | 0.00 | 0.00 | 0.00 | 78 | 1019.7 |
| 20260510123818 | 62 | 46 | 0.9 | 3.5 | 0.00 | 0.00 | 0.00 | 79 | 1019.3 |
| 20260510123317 | 62 | 32 | 0.9 | 4.3 | 0.00 | 0.00 | 0.00 | 79 | 1019.2 |
| 20260510122817 | 62 | 18 | 1.7 | 4.3 | 0.00 | 0.00 | 0.00 | 80 | 1019.1 |
| 20260510122316 | 61 | 37 | 1.7 | 3.5 | 0.00 | 0.00 | 0.00 | 80 | 1018.8 |
| 20260510121816 | 61 | 63 | 2.6 | 4.3 | 0.00 | 0.00 | 0.00 | 80 | 1018.7 |
| 20260510121321 | 61 | 69 | 1.7 | 6.1 | 0.00 | 0.00 | 0.00 | 81 | 1018.4 |
| 20260510121317 | 61 | 43 | 2.6 | 6.1 | 0.00 | 0.00 | 0.00 | 80 | 1018.4 |
| 20260510120315 | 61 | 61 | 1.7 | 5.2 | 0.00 | 0.00 | 0.00 | 80 | 1018.4 |
| 20260510115815 | 62 | 19 | 0.9 | 4.3 | 0.00 | 0.00 | 0.00 | 81 | 1018.2 |
| 20260510115315 | 61 | 65 | 1.7 | 4.3 | 0.00 | 0.00 | 0.00 | 81 | 1018.2 |
| 20260510114816 | 61 | 30 | 1.7 | 5.2 | 0.00 | 0.00 | 0.00 | 81 | 1018.0 |
| 20260510114316 | 61 | 53 | 1.7 | 7.0 | 0.00 | 0.00 | 0.00 | 81 | 1017.9 |
| 20260510113818 | 61 | 40 | 1.7 | 3.5 | 0.00 | 0.00 | 0.00 | 80 | 1017.9 |
| 20260510113814 | 61 | 77 | 1.7 | 7.0 | 0.00 | 0.00 | 0.00 | 80 | 1017.8 |
| 20260510112818 | 62 | 82 | 1.7 | 7.0 | 0.00 | 0.00 | 0.00 | 79 | 1017.8 |
| 20260510112814 | 61 | 55 | 1.7 | 7.0 | 0.00 | 0.00 | 0.00 | 80 | 1017.7 |
| 20260510111813 | 61 | 50 | 0.9 | 3.5 | 0.00 | 0.00 | 0.00 | 80 | 1017.7 |
| 20260510111313 | 61 | 52 | 0.9 | 2.6 | 0.00 | 0.00 | 0.00 | 79 | 1017.5 |
| 20260510110813 | 61 | 12 | 0.9 | 3.5 | 0.00 | 0.00 | 0.00 | 79 | 1017.3 |
| 20260510110312 | 61 | 5 | 0.9 | 3.5 | 0.00 | 0.00 | 0.00 | 79 | 1017.4 |
| 20260510105812 | 61 | 38 | 0.9 | 3.5 | 0.00 | 0.00 | 0.00 | 79 | 1017.3 |
| 20260510105313 | 61 | 5 | 0.9 | 2.6 | 0.00 | 0.00 | 0.00 | 78 | 1017.2 |
| 20260510105308 | 61 | 32 | 0.9 | 2.6 | 0.00 | 0.00 | 0.00 | 78 | 1017.3 |
| 20260510104308 | 61 | 5 | 0.9 | 2.6 | 0.00 | 0.00 | 0.00 | 78 | 1017.4 |
| 20260510103808 | 61 | 52 | 0.9 | 2.6 | 0.00 | 0.00 | 0.00 | 77 | 1017.2 |
| 20260510103308 | 61 | 67 | 0.9 | 2.6 | 0.00 | 0.00 | 0.00 | 77 | 1016.8 |
| 20260510102808 | 62 | 90 | 0.9 | 2.6 | 0.00 | 0.00 | 0.00 | 76 | 1016.8 |
| 20260510102306 | 62 | 25 | 0.9 | 2.6 | 0.00 | 0.00 | 0.00 | 76 | 1016.9 |
| 20260510101804 | 62 | 26 | 0.9 | 3.5 | 0.00 | 0.00 | 0.00 | 76 | 1017.0 |
| 20260510101304 | 62 | 28 | 0.9 | 3.5 | 0.00 | 0.00 | 0.00 | 75 | 1016.8 |
| 20260510100803 | 62 | 49 | 0.9 | 2.6 | 0.00 | 0.00 | 0.00 | 75 | 1016.6 |
| 20260510100304 | 62 | 349 | 0.9 | 2.6 | 0.00 | 0.00 | 0.00 | 75 | 1016.4 |
| 20260510095803 | 62 | 18 | 0.9 | 1.7 | 0.00 | 0.00 | 0.00 | 75 | 1016.2 |
| 20260510095305 | 62 | 67 | 0.9 | 2.6 | 0.00 | 0.00 | 0.00 | 75 | 1016.0 |
| 20260510094805 | 63 | 37 | 0.9 | 3.5 | 0.00 | 0.00 | 0.00 | 75 | 1016.0 |
| 20260510094304 | 63 | 47 | 0.9 | 3.5 | 0.00 | 0.00 | 0.00 | 75 | 1015.8 |
| 20260510093804 | 63 | 55 | 0.0 | 1.7 | 0.00 | 0.00 | 0.00 | 75 | 1015.5 |
| 20260510093312 | 64 | 40 | 0.0 | 1.7 | 0.00 | 0.00 | 0.00 | 74 | 1015.2 |
| 20260510093304 | 63 | 27 | 0.0 | 1.7 | 0.00 | 0.00 | 0.00 | 75 | 1015.4 |
| 20260510092804 | 64 | 344 | 0.0 | 2.6 | 0.00 | 0.00 | 0.00 | 75 | 1015.2 |
| 20260510092307 | 64 | 342 | 0.0 | 2.6 | 0.00 | 0.00 | 0.00 | 75 | 1015.3 |
| 20260510091308 | 64 | 76 | 0.9 | 1.7 | 0.00 | 0.00 | 0.00 | 74 | 1015.1 |
| 20260510091304 | 64 | 76 | 0.9 | 1.7 | 0.00 | 0.00 | 0.00 | 74 | 1015.1 |
| 20260510090304 | 65 | 76 | 0.0 | 1.7 | 0.00 | 0.00 | 0.00 | 74 | 1015.1 |
| 20260510085804 | 65 | 76 | 0.9 | 2.6 | 0.00 | 0.00 | 0.00 | 73 | 1014.9 |
| 20260510085306 | 65 | 76 | 0.9 | 2.6 | 0.00 | 0.00 | 0.00 | 73 | 1014.9 |
| 20260510084808 | 66 | 66 | 0.0 | 1.7 | 0.00 | 0.00 | 0.00 | 72 | 1014.9 |
| 20260510084803 | 65 | 76 | 0.0 | 2.6 | 0.00 | 0.00 | 0.00 | 72 | 1014.9 |
| 20260510083803 | 66 | 66 | 0.0 | 2.6 | 0.00 | 0.00 | 0.00 | 71 | 1014.9 |
| 20260510083304 | 66 | 66 | 0.9 | 2.6 | 0.00 | 0.00 | 0.00 | 71 | 1015.0 |
| 20260510082803 | 66 | 48 | 0.9 | 2.6 | 0.00 | 0.00 | 0.00 | 72 | 1015.1 |
| 20260510082306 | 67 | 20 | 0.9 | 2.6 | 0.00 | 0.00 | 0.00 | 71 | 1014.9 |
| 20260510081803 | 67 | 20 | 0.9 | 2.6 | 0.00 | 0.00 | 0.00 | 71 | 1015.1 |
| 20260510081304 | 67 | 65 | 0.9 | 2.6 | 0.00 | 0.00 | 0.00 | 70 | 1015.1 |
| 20260510080802 | 67 | 55 | 0.9 | 2.6 | 0.00 | 0.00 | 0.00 | 70 | 1015.2 |
| 20260510080259 | 67 | 63 | 1.7 | 5.2 | 0.00 | 0.00 | 0.00 | 70 | 1015.1 |
| 20260510075759 | 67 | 94 | 1.7 | 5.2 | 0.00 | 0.00 | 0.00 | 69 | 1015.2 |
| 20260510075300 | 68 | 68 | 1.7 | 4.3 | 0.00 | 0.00 | 0.00 | 68 | 1015.0 |
| 20260510074755 | 68 | 71 | 1.7 | 7.0 | 0.00 | 0.00 | 0.00 | 68 | 1014.9 |
| 20260510074255 | 68 | 66 | 1.7 | 7.0 | 0.00 | 0.00 | 0.00 | 67 | 1014.7 |
| 20260510073754 | 68 | 65 | 1.7 | 3.5 | 0.00 | 0.00 | 0.00 | 66 | 1014.7 |
| 20260510073252 | 69 | 72 | 0.9 | 3.5 | 0.00 | 0.00 | 0.00 | 65 | 1014.6 |
| 20260510072756 | 69 | 74 | 1.7 | 3.5 | 0.00 | 0.00 | 0.00 | 64 | 1014.6 |
| 20260510072752 | 69 | 42 | 0.9 | 2.6 | 0.00 | 0.00 | 0.00 | 64 | 1014.5 |
| 20260510071756 | 69 | 81 | 1.7 | 6.1 | 0.00 | 0.00 | 0.00 | 63 | 1014.3 |
| 20260510071751 | 69 | 74 | 1.7 | 6.1 | 0.00 | 0.00 | 0.00 | 64 | 1014.2 |
| 20260510070749 | 70 | 67 | 1.7 | 4.3 | 0.00 | 0.00 | 0.00 | 62 | 1014.4 |
| 20260510070249 | 70 | 53 | 1.7 | 4.3 | 0.00 | 0.00 | 0.00 | 60 | 1014.3 |
| 20260510065746 | 71 | 59 | 1.7 | 3.5 | 0.00 | 0.00 | 0.00 | 59 | 1014.3 |
| 20260510065245 | 71 | 63 | 1.7 | 3.5 | 0.00 | 0.00 | 0.00 | 58 | 1014.4 |
| 20260510064745 | 72 | 56 | 1.7 | 3.5 | 0.00 | 0.00 | 0.00 | 56 | 1014.4 |
| 20260510064247 | 73 | 47 | 1.7 | 3.5 | 0.00 | 0.00 | 0.00 | 51 | 1014.4 |
| 20260510064243 | 72 | 71 | 1.7 | 3.5 | 0.00 | 0.00 | 0.00 | 53 | 1014.4 |
| 20260510063856 | 75 | 61 | 1.7 | 4.3 | 0.00 | 0.00 | 0.00 | 38 | 1014.3 |
| 20260510063243 | 74 | 59 | 0.9 | 3.5 | 0.00 | 0.00 | 0.00 | 47 | 1014.4 |
| 20260510062743 | 74 | 42 | 0.9 | 4.3 | 0.00 | 0.00 | 0.00 | 40 | 1014.5 |
| 20260510061743 | 75 | 346 | 1.7 | 2.6 | 0.00 | 0.00 | 0.00 | 38 | 1014.2 |
| 20260510061242 | 76 | 54 | 0.9 | 3.5 | 0.00 | 0.00 | 0.00 | 29 | 1014.0 |
| 20260510060741 | 76 | 5 | 0.9 | 3.5 | 0.00 | 0.00 | 0.00 | 23 | 1014.0 |
| 20260510060245 | 76 | 355 | 0.9 | 2.6 | 0.00 | 0.00 | 0.00 | 22 | 1013.4 |
| 20260510060241 | 76 | 14 | 0.9 | 2.6 | 0.00 | 0.00 | 0.00 | 23 | 1013.8 |
| 20260510055737 | 76 | 34 | 0.0 | 1.7 | 0.00 | 0.00 | 0.00 | 23 | 1013.2 |
| 20260510054737 | 76 | 34 | 0.0 | 2.6 | 0.00 | 0.00 | 0.00 | 22 | 1013.2 |
| 20260510054237 | 76 | 34 | 0.0 | 2.6 | 0.00 | 0.00 | 0.00 | 22 | 1013.1 |
| 20260510053736 | 76 | 311 | 0.0 | 0.9 | 0.00 | 0.00 | 0.00 | 22 | 1013.0 |
| 20260510053237 | 77 | 311 | 0.0 | 1.7 | 0.00 | 0.00 | 0.00 | 22 | 1012.8 |
| 20260510052737 | 77 | 311 | 0.0 | 1.7 | 0.00 | 0.00 | 0.00 | 22 | 1012.8 |
| 20260510052237 | 77 | 311 | 0.0 | 0.9 | 0.00 | 0.00 | 0.00 | 22 | 1012.8 |
| 20260510051733 | 77 | 311 | 0.0 | 0.9 | 0.00 | 0.00 | 0.00 | 22 | 1013.0 |
| 20260510051232 | 77 | 311 | 0.0 | 0.9 | 0.00 | 0.00 | 0.00 | 22 | 1013.1 |
| 20260510050729 | 77 | 311 | 0.0 | 0.9 | 0.00 | 0.00 | 0.00 | 22 | 1013.1 |
| 20260510050229 | 78 | 311 | 0.0 | 0.9 | 0.00 | 0.00 | 0.00 | 22 | 1013.2 |
| 20260510045727 | 78 | 307 | 0.0 | 0.9 | 0.00 | 0.00 | 0.00 | 22 | 1013.3 |
| 20260510045231 | 79 | 307 | 0.0 | 0.9 | 0.00 | 0.00 | 0.00 | 21 | 1013.3 |
| 20260510045227 | 78 | 307 | 0.0 | 0.9 | 0.00 | 0.00 | 0.00 | 21 | 1013.3 |
| 20260510044225 | 79 | 307 | 0.0 | 1.7 | 0.00 | 0.00 | 0.00 | 21 | 1013.3 |
| 20260510043725 | 80 | 307 | 0.0 | 1.7 | 0.00 | 0.00 | 0.00 | 21 | 1013.2 |
| 20260510043224 | 80 | 329 | 0.9 | 1.7 | 0.00 | 0.00 | 0.00 | 20 | 1013.2 |
| 20260510042724 | 80 | 329 | 0.9 | 2.6 | 0.00 | 0.00 | 0.00 | 20 | 1013.2 |
| 20260510042223 | 80 | 336 | 0.0 | 2.6 | 0.00 | 0.00 | 0.00 | 19 | 1013.2 |
| 20260510041725 | 81 | 319 | 0.0 | 0.9 | 0.00 | 0.00 | 0.00 | 20 | 1013.1 |
| 20260510041224 | 81 | 319 | 0.0 | 1.7 | 0.00 | 0.00 | 0.00 | 19 | 1013.1 |
| 20260510040724 | 81 | 319 | 0.9 | 2.6 | 0.00 | 0.00 | 0.00 | 19 | 1013.2 |
| 20260510040225 | 82 | 319 | 1.7 | 6.1 | 0.00 | 0.00 | 0.00 | 19 | 1013.3 |
| 20260510035724 | 82 | 321 | 1.7 | 6.1 | 0.00 | 0.00 | 0.00 | 19 | 1013.2 |
| 20260510035220 | 81 | 322 | 1.7 | 3.5 | 0.00 | 0.00 | 0.00 | 19 | 1013.1 |
| 20260510034719 | 81 | 323 | 1.7 | 4.3 | 0.00 | 0.00 | 0.00 | 19 | 1013.0 |
| 20260510034225 | 78 | 311 | 0.9 | 3.5 | 0.00 | 0.00 | 0.00 | 21 | 1013.1 |
| 20260510034220 | 80 | 346 | 1.7 | 5.2 | 0.00 | 0.00 | 0.00 | 20 | 1012.8 |
| 20260510033717 | 79 | 328 | 1.7 | 5.2 | 0.00 | 0.00 | 0.00 | 21 | 1013.1 |
| 20260510032717 | 78 | 309 | 0.0 | 2.6 | 0.00 | 0.00 | 0.00 | 21 | 1013.0 |
| 20260510032329 | 78 | 333 | 0.0 | 0.0 | 0.00 | 0.00 | 0.00 | 19 | 1012.3 |
| 20260510032220 | 78 | 333 | 0.0 | 0.9 | 0.00 | 0.00 | 0.00 | 20 | 1012.3 |
| 20260510032215 | 78 | 333 | 0.0 | 0.9 | 0.00 | 0.00 | 0.00 | 21 | 1012.6 |
| 20260510031327 | 78 | 335 | 0.9 | 1.7 | 0.00 | 0.00 | 0.00 | 20 | 1012.2 |
| 20260510030717 | 78 | 333 | 0.0 | 2.6 | 0.00 | 0.00 | 0.00 | 19 | 1012.1 |
| 20260510030215 | 78 | 333 | 0.9 | 2.6 | 0.00 | 0.00 | 0.00 | 19 | 1012.1 |
| 20260510025214 | 78 | 325 | 0.0 | 1.7 | 0.00 | 0.00 | 0.00 | 20 | 1012.3 |
| 20260510024714 | 78 | 142 | 0.0 | 0.0 | 0.00 | 0.00 | 0.00 | 19 | 1011.9 |
| 20260510024214 | 78 | 142 | 0.0 | 0.0 | 0.00 | 0.00 | 0.00 | 19 | 1011.6 |
| 20260510023713 | 78 | 142 | 0.0 | 0.0 | 0.00 | 0.00 | 0.00 | 19 | 1011.5 |
| 20260510023213 | 79 | 142 | 0.0 | 0.0 | 0.00 | 0.00 | 0.00 | 18 | 1011.4 |
| 20260510022713 | 79 | 142 | 0.0 | 0.9 | 0.00 | 0.00 | 0.00 | 17 | 1011.2 |
| 20260510022213 | 79 | 142 | 0.0 | 1.7 | 0.00 | 0.00 | 0.00 | 17 | 1011.0 |
| 20260510021712 | 79 | 142 | 0.0 | 1.7 | 0.00 | 0.00 | 0.00 | 17 | 1011.0 |
| 20260510021213 | 80 | 142 | 0.0 | 0.9 | 0.00 | 0.00 | 0.00 | 18 | 1011.3 |
| 20260510020712 | 80 | 142 | 0.0 | 0.9 | 0.00 | 0.00 | 0.00 | 17 | 1011.0 |
| 20260510020211 | 80 | 142 | 0.0 | 0.9 | 0.00 | 0.00 | 0.00 | 16 | 1010.9 |
| 20260510015711 | 80 | 142 | 0.0 | 3.5 | 0.00 | 0.00 | 0.00 | 16 | 1010.9 |
| 20260510015211 | 81 | 142 | 0.0 | 3.5 | 0.00 | 0.00 | 0.00 | 16 | 1010.9 |
| 20260510014711 | 81 | 309 | 0.0 | 0.9 | 0.00 | 0.00 | 0.00 | 16 | 1010.8 |
| 20260510014211 | 81 | 309 | 0.0 | 0.0 | 0.00 | 0.00 | 0.00 | 17 | 1010.7 |
| 20260510013716 | 83 | 309 | 0.0 | 0.0 | 0.00 | 0.00 | 0.00 | 17 | 1010.6 |
| 20260510013712 | 82 | 309 | 0.0 | 0.0 | 0.00 | 0.00 | 0.00 | 17 | 1010.6 |
| 20260510012711 | 83 | 309 | 0.0 | 0.0 | 0.00 | 0.00 | 0.00 | 16 | 1010.6 |
| 20260510012211 | 84 | 309 | 0.0 | 0.0 | 0.00 | 0.00 | 0.00 | 15 | 1010.5 |
| 20260510011710 | 84 | 309 | 0.0 | 0.0 | 0.00 | 0.00 | 0.00 | 14 | 1010.4 |
| 20260510011208 | 85 | 309 | 0.0 | 0.0 | 0.00 | 0.00 | 0.00 | 14 | 1010.4 |
| 20260510010709 | 85 | 309 | 0.0 | 0.0 | 0.00 | 0.00 | 0.00 | 14 | 1010.3 |
| 20260510010209 | 86 | 309 | 0.0 | 0.0 | 0.00 | 0.00 | 0.00 | 14 | 1010.3 |
| 20260510005710 | 87 | 309 | 0.0 | 0.9 | 0.00 | 0.00 | 0.00 | 13 | 1010.3 |
| 20260510005209 | 87 | 309 | 0.0 | 0.9 | 0.00 | 0.00 | 0.00 | 13 | 1010.2 |
| 20260510004709 | 87 | 309 | 0.0 | 1.7 | 0.00 | 0.00 | 0.00 | 13 | 1010.2 |
| 20260510004210 | 88 | 309 | 0.9 | 2.6 | 0.00 | 0.00 | 0.00 | 12 | 1010.2 |
| 20260510003714 | 89 | 309 | 0.9 | 2.6 | 0.00 | 0.00 | 0.00 | 12 | 1010.2 |
| 20260510003709 | 88 | 309 | 0.9 | 2.6 | 0.00 | 0.00 | 0.00 | 12 | 1010.2 |
| 20260510002715 | 90 | 281 | 1.7 | 4.3 | 0.00 | 0.00 | 0.00 | 12 | 1010.2 |
| 20260510002708 | 89 | 309 | 0.9 | 3.5 | 0.00 | 0.00 | 0.00 | 12 | 1010.2 |
| 20260510002208 | 89 | 307 | 0.9 | 3.5 | 0.00 | 0.00 | 0.00 | 11 | 1010.2 |
| 20260510001707 | 89 | 310 | 1.7 | 4.3 | 0.00 | 0.00 | 0.00 | 11 | 1010.0 |
| 20260510001207 | 89 | 292 | 1.7 | 4.3 | 0.00 | 0.00 | 0.00 | 11 | 1010.2 |
| 20260510000207 | 90 | 297 | 1.7 | 3.5 | 0.00 | 0.00 | 0.00 | 11 | 1010.3 |
| 20260509235708 | 90 | 282 | 1.7 | 4.3 | 0.00 | 0.00 | 0.00 | 11 | 1010.2 |
| 20260509235212 | 91 | 326 | 1.7 | 3.5 | 0.00 | 0.00 | 0.00 | 11 | 1010.2 |
| 20260509235208 | 91 | 333 | 1.7 | 4.3 | 0.00 | 0.00 | 0.00 | 11 | 1010.2 |
| 20260509234819 | 91 | 32 | 1.7 | 3.5 | 0.00 | 0.00 | 0.00 | 10 | 1010.3 |
| 20260509233707 | 91 | 289 | 1.7 | 3.5 | 0.00 | 0.00 | 0.00 | 11 | 1010.3 |
| 20260509233205 | 91 | 259 | 1.7 | 4.3 | 0.00 | 0.00 | 0.00 | 11 | 1010.4 |
| 20260509232703 | 92 | 323 | 1.7 | 4.3 | 0.00 | 0.00 | 0.00 | 10 | 1010.4 |
| 20260509232203 | 92 | 336 | 0.9 | 3.5 | 0.00 | 0.00 | 0.00 | 10 | 1010.4 |
| 20260509231702 | 92 | 259 | 0.9 | 5.2 | 0.00 | 0.00 | 0.00 | 10 | 1010.4 |
| 20260509231200 | 91 | 234 | 1.7 | 6.1 | 0.00 | 0.00 | 0.00 | 10 | 1010.5 |
| 20260509230701 | 91 | 78 | 2.6 | 6.1 | 0.00 | 0.00 | 0.00 | 9 | 1010.5 |
| 20260509230200 | 91 | 297 | 3.5 | 7.8 | 0.00 | 0.00 | 0.00 | 9 | 1010.6 |